South Haven, MI

5:07 AM EDT on July 23, 2017 (GMT -0400)
South Haven

Weather History for KLWA - April, 2013

Change the Weather History Date:

Saturday, April 13, 2013

  Actual Average (KBEH) Record (KBEH)
Temperature  
Mean Temperature 38 °F -  
Max Temperature 41 °F 59 °F 77 °F (1960)
Min Temperature 36 °F 36 °F 18 °F (1950)
Degree Days  
Heating Degree Days 26    
Moisture  
Dew Point 30 °F    
Average Humidity 72    
Maximum Humidity 82    
Minimum Humidity 65    
Precipitation  
Precipitation 0.00 in - - ()
Sea Level Pressure  
Sea Level Pressure 29.88 in    
Wind  
Wind Speed 12 mph (WSW)    
Max Wind Speed 20 mph    
Max Gust Speed 26 mph    
Visibility 10 miles    
Events      
Averages and records for this station are not official NWS values.
T = Trace of Precipitation, MM = Missing Value Source: NWS Daily Summary

Daily Weather History Graph

Daily Weather History Graph

Search for Another Location

Airport or City:

Trip Planner

Search our weather history database for the weather conditions in past years. The results will help you decide how hot, cold, wet, or windy it might be!

Date:

Astronomy

Apr. 13, 2013 Rise Set
Actual Time 7:06 AM EDT 8:24 PM EDT
Civil Twilight 6:37 AM EDT 8:53 PM EDT
Nautical Twilight 6:03 AM EDT 9:28 PM EDT
Astronomical Twilight 5:26 AM EDT 10:05 PM EDT
Moon 8:54 AM EDT (4/13) 11:51 PM EDT (4/13)
Length of Visible Light 14h 15m
Length of Day
13h 17m
Waxing Crescent, 10% of the Moon is Illuminated
Apr 13
Waxing Crescent
Apr 18
First Quarter
Apr 25
Full
May 2
Last Quarter
May 9
New

Hourly Weather History & Observations

Time (EDT) Temp. Windchill Dew Point Humidity Pressure Visibility Wind Dir Wind Speed Gust Speed Precip Events Conditions
12:15 AM 37.8 °F 30.7 °F 32.5 °F 81% 29.81 in 10.0 mi West 10.4 mph 19.6 mph N/A   Overcast
12:35 AM 37.8 °F 29.0 °F 32.0 °F 80% 29.81 in 10.0 mi West 15.0 mph 21.9 mph N/A   Overcast
12:55 AM 37.8 °F 29.4 °F 31.6 °F 79% 29.81 in 10.0 mi West 13.8 mph 20.7 mph N/A   Overcast
1:14 AM 37.8 °F 29.8 °F 31.8 °F 79% 29.82 in 10.0 mi WSW 12.7 mph 18.4 mph N/A   Overcast
1:35 AM 37.6 °F 31.0 °F 32.0 °F 80% 29.82 in 10.0 mi WSW 9.2 mph 16.1 mph N/A   Overcast
1:55 AM 37.8 °F 30.7 °F 32.0 °F 80% 29.82 in 10.0 mi West 10.4 mph - N/A   Overcast
2:14 AM 37.8 °F 30.7 °F 32.0 °F 80% 29.82 in 10.0 mi West 10.4 mph 18.4 mph N/A   Overcast
2:35 AM 37.6 °F 30.0 °F 32.0 °F 80% 29.82 in 10.0 mi WSW 11.5 mph 17.3 mph N/A   Overcast
2:55 AM 37.6 °F 30.5 °F 31.8 °F 80% 29.82 in 10.0 mi WSW 10.4 mph 19.6 mph N/A   Overcast
3:14 AM 37.4 °F 29.3 °F 32.0 °F 81% 29.82 in 10.0 mi West 12.7 mph 17.3 mph N/A   Overcast
3:35 AM 37.4 °F 30.8 °F 31.8 °F 80% 29.82 in 10.0 mi West 9.2 mph - N/A   Overcast
3:55 AM 37.4 °F 29.8 °F 31.1 °F 78% 29.82 in 10.0 mi West 11.5 mph - N/A   Overcast
4:15 AM 37.4 °F 29.3 °F 30.0 °F 75% 29.82 in 10.0 mi West 12.7 mph 19.6 mph N/A   Overcast
4:35 AM 37.4 °F 29.3 °F 30.6 °F 76% 29.82 in 10.0 mi West 12.7 mph 16.1 mph N/A   Overcast
4:54 AM 37.2 °F 31.2 °F 31.1 °F 79% 29.82 in 10.0 mi West 8.1 mph 17.3 mph N/A   Overcast
5:15 AM 37.0 °F 30.4 °F 32.0 °F 82% 29.81 in 10.0 mi WSW 9.2 mph - N/A   Overcast
5:35 AM 36.9 °F 27.8 °F 31.6 °F 81% 29.81 in 10.0 mi WSW 15.0 mph 18.4 mph N/A   Overcast
5:55 AM 36.7 °F 28.4 °F 31.1 °F 80% 29.81 in 10.0 mi WSW 12.7 mph 18.4 mph N/A   Overcast
6:15 AM 36.7 °F 27.6 °F 30.7 °F 79% 29.81 in 10.0 mi WSW 15.0 mph 25.3 mph N/A   Overcast
6:35 AM 36.7 °F 27.2 °F 30.2 °F 77% 29.81 in 10.0 mi WSW 16.1 mph 23.0 mph N/A   Overcast
6:55 AM 36.7 °F 27.6 °F 30.0 °F 77% 29.82 in 10.0 mi WSW 15.0 mph 24.2 mph N/A   Overcast
7:15 AM 36.5 °F 27.8 °F 28.4 °F 72% 29.82 in 10.0 mi WSW 13.8 mph 23.0 mph N/A   Overcast
7:34 AM 36.7 °F 28.0 °F 28.4 °F 72% 29.81 in 10.0 mi WSW 13.8 mph 19.6 mph N/A   Overcast
7:55 AM 36.7 °F 27.6 °F 27.5 °F 69% 29.82 in 10.0 mi WSW 15.0 mph 26.5 mph N/A   Overcast
8:14 AM 36.7 °F 28.0 °F 26.4 °F 66% 29.82 in 10.0 mi WSW 13.8 mph 24.2 mph N/A   Overcast
8:34 AM 36.7 °F 27.6 °F 26.4 °F 66% 29.83 in 10.0 mi West 15.0 mph 23.0 mph N/A   Overcast
8:55 AM 36.9 °F 27.5 °F 26.2 °F 65% 29.83 in 10.0 mi WSW 16.1 mph 23.0 mph N/A   Overcast
9:15 AM 36.9 °F 27.5 °F 27.9 °F 70% 29.83 in 10.0 mi WSW 16.1 mph 24.2 mph N/A   Overcast
9:35 AM 37.0 °F 26.7 °F 28.8 °F 72% 29.83 in 10.0 mi West 19.6 mph 26.5 mph N/A   Overcast
9:55 AM 37.4 °F 29.8 °F 28.8 °F 71% 29.84 in 10.0 mi WSW 11.5 mph 18.4 mph N/A   Overcast
10:14 AM 37.0 °F 27.4 °F 27.0 °F 67% 29.84 in 10.0 mi West 17.3 mph 25.3 mph N/A   Overcast
10:35 AM 37.0 °F 27.7 °F 27.9 °F 69% 29.85 in 10.0 mi West 16.1 mph 26.5 mph N/A   Overcast
10:55 AM 37.4 °F 28.5 °F 29.8 °F 74% 29.85 in 10.0 mi West 15.0 mph 23.0 mph N/A   Overcast
11:15 AM 38.1 °F 29.5 °F 28.9 °F 70% 29.85 in 10.0 mi West 15.0 mph 24.2 mph N/A   Overcast
11:35 AM 38.5 °F 29.6 °F 29.7 °F 71% 29.86 in 10.0 mi West 16.1 mph 23.0 mph N/A   Overcast
11:54 AM 38.3 °F 29.0 °F 28.9 °F 69% 29.87 in 10.0 mi WSW 17.3 mph 26.5 mph N/A   Overcast
12:14 PM 38.7 °F 29.1 °F 29.3 °F 69% 29.87 in 10.0 mi West 18.4 mph 25.3 mph N/A   Overcast
12:34 PM 37.9 °F 28.2 °F 28.8 °F 70% 29.88 in 10.0 mi West 18.4 mph 25.3 mph N/A   Overcast
12:55 PM 38.5 °F 28.9 °F 29.3 °F 70% 29.89 in 10.0 mi West 18.4 mph 25.3 mph N/A   Overcast
1:14 PM 38.8 °F 30.4 °F 28.9 °F 68% 29.89 in 10.0 mi West 15.0 mph 26.5 mph N/A   Mostly Cloudy
1:35 PM 39.7 °F 31.2 °F 30.2 °F 69% 29.90 in 10.0 mi West 16.1 mph 25.3 mph N/A   Scattered Clouds
1:55 PM 41.0 °F 32.2 °F 31.1 °F 68% 29.90 in 10.0 mi West 18.4 mph 25.3 mph N/A   Mostly Cloudy
2:15 PM 40.3 °F 31.6 °F 29.8 °F 66% 29.91 in 10.0 mi West 17.3 mph 26.5 mph N/A   Mostly Cloudy
2:35 PM 39.4 °F 31.1 °F 29.7 °F 68% 29.91 in 10.0 mi West 15.0 mph 24.2 mph N/A   Overcast
2:54 PM 39.9 °F 31.8 °F 30.0 °F 68% 29.91 in 10.0 mi West 15.0 mph 24.2 mph N/A   Overcast
3:15 PM 39.2 °F 30.8 °F 29.8 °F 69% 29.92 in 10.0 mi West 15.0 mph 25.3 mph N/A   Overcast
3:34 PM 39.6 °F 30.6 °F 30.4 °F 70% 29.92 in 10.0 mi West 17.3 mph 21.9 mph N/A   Overcast
3:55 PM 39.0 °F 31.0 °F 29.8 °F 70% 29.92 in 10.0 mi West 13.8 mph 21.9 mph N/A   Overcast
4:15 PM 40.1 °F 32.0 °F 30.2 °F 68% 29.93 in 10.0 mi West 15.0 mph 18.4 mph N/A   Overcast
4:35 PM 40.1 °F 32.7 °F 30.4 °F 68% 29.93 in 10.0 mi West 12.7 mph 18.4 mph N/A   Overcast
4:55 PM 39.4 °F 32.3 °F 30.0 °F 69% 29.93 in 10.0 mi West 11.5 mph 16.1 mph N/A   Overcast
5:14 PM 39.7 °F 32.3 °F 29.5 °F 67% 29.93 in 10.0 mi West 12.7 mph 17.3 mph N/A   Overcast
5:35 PM 39.4 °F 33.2 °F 30.0 °F 69% 29.94 in 10.0 mi WSW 9.2 mph 16.1 mph N/A   Overcast
5:55 PM 39.4 °F 33.2 °F 29.8 °F 69% 29.94 in 10.0 mi WSW 9.2 mph 17.3 mph N/A   Overcast
6:15 PM 39.4 °F 33.2 °F 28.9 °F 66% 29.94 in 10.0 mi WSW 9.2 mph - N/A   Overcast
6:35 PM 39.2 °F 34.2 °F 29.3 °F 68% 29.94 in 10.0 mi WSW 6.9 mph - N/A   Overcast
6:54 PM 39.2 °F 33.6 °F 28.6 °F 66% 29.94 in 10.0 mi West 8.1 mph - N/A   Overcast
7:15 PM 39.2 °F 33.6 °F 28.6 °F 66% 29.94 in 10.0 mi WSW 8.1 mph - N/A   Overcast
7:35 PM 38.8 °F 33.2 °F 29.3 °F 69% 29.94 in 10.0 mi West 8.1 mph - N/A   Overcast
7:54 PM 38.8 °F 33.8 °F 29.3 °F 69% 29.94 in 10.0 mi WSW 6.9 mph - N/A   Mostly Cloudy
8:15 PM 38.5 °F 34.1 °F 29.5 °F 70% 29.94 in 10.0 mi WSW 5.8 mph - N/A   Mostly Cloudy
8:35 PM 38.5 °F 35.0 °F 28.8 °F 68% 29.95 in 10.0 mi WSW 4.6 mph - N/A   Overcast
8:55 PM 38.5 °F 35.0 °F 29.3 °F 70% 29.95 in 10.0 mi WSW 4.6 mph - N/A   Overcast
9:15 PM 38.3 °F 35.9 °F 30.0 °F 72% 29.96 in 10.0 mi WSW 3.5 mph - N/A   Overcast
9:34 PM 38.3 °F 35.9 °F 29.7 °F 71% 29.96 in 10.0 mi WSW 3.5 mph - N/A   Overcast
9:55 PM 38.3 °F - 30.4 °F 73% 29.97 in 10.0 mi Calm Calm - N/A   Overcast
10:15 PM 38.3 °F - 30.7 °F 74% 29.98 in 10.0 mi Calm Calm - N/A   Overcast
10:34 PM 38.3 °F - 30.6 °F 74% 29.98 in 10.0 mi Calm Calm - N/A   Overcast
10:55 PM 38.3 °F - 30.4 °F 73% 29.98 in 10.0 mi Calm Calm - N/A   Overcast
11:15 PM 37.9 °F - 30.6 °F 75% 29.98 in 10.0 mi Calm Calm - N/A   Overcast
11:35 PM 37.9 °F - 30.7 °F 75% 29.98 in 10.0 mi Calm Calm - N/A   Overcast
11:55 PM 37.8 °F - 30.9 °F 76% 29.99 in 10.0 mi Calm Calm - N/A   Overcast